Other Surface Observations
Issued by NWS Charleston, SC

Home | Current Version | Previous Version | Text Only | Print | Product List | Glossary On
Versions: 1 2 3 4 5 6 7 8 9 10 11 12 13 14 15 16 17 18 19 20 21 22 23 24 25 26 27 28 29 30 31 32 33 34 35 36 37 38 39 40 41 42 43 44 45 46 47 48 49 50
989
SXUS52 KCHS 181827
OSOCHS

Marine Observations
National Weather Service Charleston SC
100 PM EST MON DEC 18 2017

...Downtown Charleston and Harbor...

CITY           SKY/WX    TMP DP  RH WIND       PRES   REMARKS
Waterfront Prk   N/A     67  62  84 VRB2      30.00F

...Lake Moultrie...

CITY           SKY/WX    TMP DP  RH WIND       PRES   REMARKS
Pinopolis        N/A     61  57  88 CALM      30.06F

...Lake and Supplemental Coastal Observations...

STATION/POSITION TIME  TEMP    WIND        PRES    WAVE   SWELL
                       AIR SEA DIR/SP/G            HT/PER HT/PER/DIR
                 (UTC) (F)     (DEG/KT/KT) (MB)    (FT/S) (FT/S/D)
Fort Pulaski     1800   66 54  250/  4/  5 1021.7
Sapelo Island    1800   66     250/  7     1022.0
Winyah Bay       1745   69     280/  6     1020.0F
Lake Murray      1810          220/  8       N/A
ACE Basin NERRS  1745   65     210/  2     1021.0F


...C-MAN and Buoy Observations...

STATION/POSITION TIME  TEMP    WIND        PRES    WAVE   SWELL
                       AIR SEA DIR/SP/G            HT/PER HT/PER/DIR
                 (UTC) (F)     (DEG/KT/KT) (MB)    (FT/S) (FT/S/D)
Buoy 41004       1810   67 73  260/ 14/ 17 1020.3
Buoy 41008       1750   61 59  180/ 10/ 12 1022.0F   2/10   2/100/10
Folly Beach CMAN 1800   58     220/  8/ 11 1021.1F
Capers NS Buoy   1808   56 56  230/ 10/ 14 1020.1F
Fripp NS Buoy    1808   56 54  230/  8/ 12 1020.6F
5E St. Marys GA  1730      62                N/A     2/11


STATION/POSITION TIME  TEMP    WIND        PRES    WAVE   SWELL
                       AIR SEA DIR/SP/G            HT/PER HT/PER/DIR
                 (UTC) (F)     (DEG/KT/KT) (MB)    (FT/S) (FT/S/D)
Frying Pan Buoy  1810   67 71  260/ 12/ 14 1019.9
Buoy 41025       1810   62 72  280/  8/ 12 1019.7
Cape Lookout NC  1800          170/  6/  6 1020.0F
Buoy 41002       1750   73 75  240/ 17/ 23 1021.2F   4/ 5   2/ 80/ 9
Buoy 41010       NOT AVBL
St Augustine FL  1800   78 65  240/  6/  7 1022.8F

$$




USA.gov is the U.S. government's official web portal to all federal, state and local government web resources and services.